User: anonymous   Login
Location: Unspecified
(0.0000°N, 0.0000°E)
Time: 15:34:05
(UTC+00:00)
Language:

N. Korean satellite - Orbit

View from above orbital plane
View from above orbital plane
View from above satellite
View from above satellite

Ground track
Ground track

The orbit data is extracted from the following two-line orbital elements,

1 39026U 12072A   17177.65252340 +.00001223 +00000-0 +49943-4 0  9993
2 39026 097.2227 195.1729 0041670 141.6038 218.8179 15.25469144251371
Epoch (UTC): 26 June 2017 15:39:38
Eccentricity: 0.0041670
inclination: 97.2227°
perigee height: 461 km
apogee height: 518 km
right ascension of ascending node: 195.1729°
argument of perigee: 141.6038°
revolutions per day: 15.25469144
mean anomaly at epoch: 218.8179°
orbit number at epoch: 25137

The dashed part of the orbit path shows where the satellite is in the earth's shadow,  

DLR